TimeICT,TemperatureF,Dew PointF,Humidity,Sea Level PressureIn,VisibilityMPH,Wind Direction,Wind SpeedMPH,Gust SpeedMPH,PrecipitationIn,Events,Conditions,WindDirDegrees,DateUTC
12:00 AM,80.6,73.4,79,29.86,5.0,ENE,4.6,-,N/A,,Mostly Cloudy,60,2013-12-15 17:00:00
12:30 AM,78.8,75.2,89,29.83,5.0,Variable,1.2,-,N/A,,Mostly Cloudy,0,2013-12-15 17:30:00
1:00 AM,80,75,81,29.81,6,Calm,Calm,,,,Scattered Clouds,,2013-12-15 18:00:00
1:00 AM,78.8,73.4,83,29.83,5.0,ENE,3.5,-,N/A,,Mostly Cloudy,60,2013-12-15 18:00:00
1:30 AM,78.8,73.4,83,29.83,5.0,NE,3.5,-,N/A,,Mostly Cloudy,50,2013-12-15 18:30:00
2:00 AM,78.8,73.4,83,29.80,5.0,Variable,2.3,-,N/A,,Mostly Cloudy,0,2013-12-15 19:00:00
2:30 AM,77.0,73.4,89,29.83,5.0,Calm,Calm,-,N/A,,Mostly Cloudy,0,2013-12-15 19:30:00
3:00 AM,77.0,73.4,89,29.80,5.0,Calm,Calm,-,N/A,,Mostly Cloudy,0,2013-12-15 20:00:00
3:30 AM,77.0,73.4,89,29.80,5.0,Calm,Calm,-,N/A,,Mostly Cloudy,0,2013-12-15 20:30:00
4:00 AM,78,74,86,29.75,6,Calm,Calm,,,,Scattered Clouds,,2013-12-15 21:00:00
4:00 AM,77.0,73.4,89,29.80,5.0,Calm,Calm,-,N/A,,Mostly Cloudy,0,2013-12-15 21:00:00
4:30 AM,77.0,73.4,89,29.77,5.0,Calm,Calm,-,N/A,,Mostly Cloudy,0,2013-12-15 21:30:00
5:00 AM,77.0,73.4,89,29.77,5.0,Calm,Calm,-,N/A,,Mostly Cloudy,0,2013-12-15 22:00:00
5:30 AM,77.0,73.4,89,29.80,5.0,Calm,Calm,-,N/A,,Mostly Cloudy,0,2013-12-15 22:30:00
6:00 AM,77.0,73.4,89,29.80,5.0,Calm,Calm,-,N/A,,Mostly Cloudy,0,2013-12-15 23:00:00
6:30 AM,77.0,73.4,89,29.80,5.0,Calm,Calm,-,N/A,,Mostly Cloudy,0,2013-12-15 23:30:00
7:00 AM,77,76,94,29.78,6,Calm,Calm,,,,Scattered Clouds,,2013-12-16 00:00:00
7:00 AM,77.0,75.2,94,29.83,5.0,Calm,Calm,-,N/A,,Mostly Cloudy,0,2013-12-16 00:00:00
7:30 AM,77.0,75.2,94,29.83,5.0,Calm,Calm,-,N/A,,Mostly Cloudy,0,2013-12-16 00:30:00
8:00 AM,80.6,77.0,89,29.86,4.3,Calm,Calm,-,N/A,,Mostly Cloudy,0,2013-12-16 01:00:00
8:30 AM,84.2,75.2,74,29.86,4.3,Variable,1.2,-,N/A,,Mostly Cloudy,0,2013-12-16 01:30:00
9:00 AM,84.2,73.4,70,29.86,4.3,Variable,1.2,-,N/A,,Mostly Cloudy,0,2013-12-16 02:00:00
9:30 AM,82.4,75.2,79,29.86,4.3,WNW,6.9,-,N/A,,Mostly Cloudy,290,2013-12-16 02:30:00
10:00 AM,82,75,73,29.82,6,NW,9.2,,,,Scattered Clouds,320,2013-12-16 03:00:00
10:00 AM,80.6,73.4,79,29.86,4.3,West,9.2,-,N/A,,Mostly Cloudy,260,2013-12-16 03:00:00
10:30 AM,80.6,73.4,79,29.86,4.3,Variable,2.3,-,N/A,,Mostly Cloudy,0,2013-12-16 03:30:00
11:00 AM,80.6,73.4,79,29.86,4.3,NE,6.9,-,N/A,,Mostly Cloudy,50,2013-12-16 04:00:00
11:30 AM,80.6,73.4,79,29.86,5.0,SSE,4.6,-,N/A,,Mostly Cloudy,160,2013-12-16 04:30:00
12:00 PM,82.4,73.4,74,29.83,5.0,East,4.6,-,N/A,,Mostly Cloudy,100,2013-12-16 05:00:00
12:30 PM,84.2,73.4,70,29.80,5.0,Variable,1.2,-,N/A,,Mostly Cloudy,0,2013-12-16 05:30:00
1:00 PM,86,76,66,29.79,6,Calm,Calm,,,,Scattered Clouds,,2013-12-16 06:00:00
1:00 PM,87.8,75.2,66,29.80,5.0,WNW,6.9,-,N/A,,Mostly Cloudy,290,2013-12-16 06:00:00
1:30 PM,86.0,75.2,70,29.80,5.0,WNW,12.7,-,N/A,,Mostly Cloudy,290,2013-12-16 06:30:00
2:00 PM,87.8,75.2,66,29.77,5.0,WNW,12.7,-,N/A,,Mostly Cloudy,290,2013-12-16 07:00:00
2:30 PM,87.8,73.4,62,29.77,5.0,WNW,12.7,-,N/A,,Mostly Cloudy,290,2013-12-16 07:30:00
3:00 PM,86.0,75.2,70,29.80,5.0,WNW,13.8,-,N/A,,Mostly Cloudy,300,2013-12-16 08:00:00
3:30 PM,86.0,73.4,66,29.74,5.0,WNW,12.7,-,N/A,,Mostly Cloudy,300,2013-12-16 08:30:00
4:00 PM,86.0,73.4,66,29.74,5.0,WNW,15.0,-,N/A,,Mostly Cloudy,290,2013-12-16 09:00:00
4:30 PM,86.0,73.4,66,29.74,5.0,WNW,13.8,-,N/A,,Mostly Cloudy,290,2013-12-16 09:30:00
5:00 PM,84.2,75.2,74,29.74,5.0,WNW,12.7,-,N/A,,Mostly Cloudy,300,2013-12-16 10:00:00
5:30 PM,84.2,73.4,70,29.74,5.0,WNW,12.7,-,N/A,,Mostly Cloudy,290,2013-12-16 10:30:00
6:00 PM,82.4,73.4,74,29.77,5.0,WNW,11.5,-,N/A,,Mostly Cloudy,290,2013-12-16 11:00:00
6:30 PM,82.4,73.4,74,29.77,5.0,WNW,12.7,-,N/A,,Mostly Cloudy,290,2013-12-16 11:30:00
7:00 PM,84,75,68,29.73,6,NW,10.4,,,,Scattered Clouds,310,2013-12-16 12:00:00
7:00 PM,82.4,73.4,74,29.80,4.3,WNW,11.5,-,N/A,,Mostly Cloudy,290,2013-12-16 12:00:00
7:30 PM,82.4,71.6,70,29.80,4.3,WNW,10.4,-,N/A,,Mostly Cloudy,290,2013-12-16 12:30:00
8:00 PM,82.4,73.4,74,29.83,5.0,WNW,11.5,-,N/A,,Mostly Cloudy,300,2013-12-16 13:00:00
8:30 PM,82.4,73.4,74,29.83,5.0,West,6.9,-,N/A,,Mostly Cloudy,280,2013-12-16 13:30:00
9:00 PM,82.4,73.4,74,29.83,5.0,WNW,8.1,-,N/A,,Mostly Cloudy,300,2013-12-16 14:00:00
9:30 PM,80.6,73.4,79,29.86,5.0,WNW,9.2,-,N/A,,Mostly Cloudy,290,2013-12-16 14:30:00
10:00 PM,83,75,71,29.78,6,WNW,6.9,,,,Scattered Clouds,290,2013-12-16 15:00:00
10:00 PM,80.6,73.4,79,29.86,5.0,WNW,9.2,-,N/A,,Mostly Cloudy,290,2013-12-16 15:00:00
10:30 PM,80.6,73.4,79,29.86,5.0,WNW,6.9,-,N/A,,Mostly Cloudy,300,2013-12-16 15:30:00
11:00 PM,80.6,73.4,79,29.86,5.0,NW,8.1,-,N/A,,Mostly Cloudy,320,2013-12-16 16:00:00
11:30 PM,80.6,73.4,79,29.86,5.0,WNW,5.8,-,N/A,,Mostly Cloudy,300,2013-12-16 16:30:00